(44) Nysa
(44) Nysa
Epoch 2007 Oct. 27.0 TT = JDT 2454400.5 Goffin
M 66.58721 (2000.0) P Q
n 0.26129943 Peri. 342.41033 -0.40740143 -0.91197142
a 2.4231320 Node 131.60178 +0.84546164 -0.39662661
e 0.1483198 Incl. 3.70286 +0.34528060 -0.10485927
P 3.77 H 7.03 G 0.46 U 0
From 1410 observations at 81 oppositions, 1857-2000, mean residual 0".52.
An explanation of the orbital
elements is available.These orbital elements are also available in forms suitable for loading into a number of popular planetarium-type software programs.
Personalized ephemerides for this object (and others) can be generated using the MPES.
Date TT R. A. (2000) Decl. Delta r Elong. Phase V 2008 03 11 16 56.11 -18 28.3 2.246 2.547 95.8 22.8 11.5 2008 03 16 16 59.90 -18 27.6 2.187 2.554 99.9 22.6 11.5 2008 03 21 17 03.11 -18 25.6 2.129 2.561 104.1 22.2 11.4 2008 03 26 17 05.72 -18 22.5 2.072 2.568 108.4 21.6 11.4 2008 03 31 17 07.67 -18 18.3 2.016 2.575 112.9 20.9 11.3 2008 04 05 17 08.94 -18 13.2 1.963 2.582 117.5 20.1 11.2 2008 04 10 17 09.50 -18 07.2 1.911 2.589 122.3 19.1 11.1 2008 04 15 17 09.33 -18 00.6 1.863 2.596 127.2 17.9 11.1 2008 04 20 17 08.42 -17 53.5 1.818 2.602 132.3 16.6 11.0 2008 04 25 17 06.79 -17 45.8 1.777 2.609 137.5 15.1 10.9 2008 04 30 17 04.44 -17 37.7 1.741 2.615 142.9 13.4 10.8 2008 05 05 17 01.41 -17 29.4 1.709 2.622 148.4 11.6 10.7 2008 05 10 16 57.77 -17 21.0 1.683 2.628 154.0 9.7 10.7 2008 05 15 16 53.61 -17 12.5 1.663 2.634 159.7 7.7 10.6 2008 05 20 16 49.03 -17 04.2 1.649 2.640 165.3 5.6 10.5 2008 05 25 16 44.15 -16 56.3 1.642 2.646 170.6 3.6 10.4 2008 05 30 16 39.11 -16 48.9 1.641 2.652 174.4 2.1 10.4 2008 06 04 16 34.04 -16 42.2 1.648 2.658 173.3 2.6 10.4 2008 06 09 16 29.10 -16 36.7 1.661 2.663 168.6 4.3 10.5 2008 06 14 16 24.42 -16 32.4 1.681 2.669 163.1 6.3 10.6 2008 06 19 16 20.12 -16 29.6 1.707 2.674 157.5 8.3 10.7 2008 06 24 16 16.30 -16 28.6 1.739 2.680 152.0 10.3 10.8 2008 06 29 16 13.02 -16 29.3 1.777 2.685 146.6 12.0 10.9 2008 07 04 16 10.36 -16 31.9 1.821 2.690 141.2 13.7 11.0 2008 07 09 16 08.35 -16 36.5 1.869 2.695 136.1 15.2 11.1 2008 07 14 16 07.01 -16 43.0 1.921 2.699 131.0 16.5 11.2 2008 07 19 16 06.35 -16 51.4 1.977 2.704 126.2 17.7 11.3 2008 07 24 16 06.34 -17 01.5 2.036 2.709 121.4 18.7 11.4 2008 07 29 16 06.97 -17 13.1 2.098 2.713 116.9 19.5 11.5 2008 08 03 16 08.23 -17 26.2 2.163 2.717 112.4 20.2 11.5 2008 08 08 16 10.08 -17 40.5 2.230 2.721 108.1 20.7 11.6 2008 08 13 16 12.50 -17 55.9 2.297 2.725 104.0 21.1 11.7 2008 08 18 16 15.44 -18 12.1 2.367 2.729 99.9 21.4 11.8 2008 08 23 16 18.88 -18 28.9 2.436 2.733 95.9 21.6 11.8 2008 08 28 16 22.79 -18 46.2 2.507 2.737 92.1 21.6 11.9